Angel Fire, NM

4:30 PM MDT on May 28, 2017 (GMT -0600)
Angel Fire

Weather History for KAXX - August, 2014

Change the Weather History Date:

Wednesday, August 13, 2014

  Actual Average (KSKX) Record (KSKX)
Temperature  
Mean Temperature 56 °F -  
Max Temperature 73 °F 79 °F 89 °F (2007)
Min Temperature 39 °F 47 °F 41 °F (1999)
Degree Days  
Heating Degree Days 9    
Growing Degree Days 6 (Base 50)    
Moisture  
Dew Point 45 °F    
Average Humidity 74    
Maximum Humidity 100    
Minimum Humidity 31    
Precipitation  
Precipitation 0.03 in - - ()
Sea Level Pressure  
Sea Level Pressure 30.47 in    
Wind  
Wind Speed 2 mph (South)    
Max Wind Speed 14 mph    
Max Gust Speed 21 mph    
Visibility 9 miles    
Events Fog , Rain    
Averages and records for this station are not official NWS values.
T = Trace of Precipitation, MM = Missing Value Source: NWS Daily Summary

Daily Weather History Graph

Daily Weather History Graph

Search for Another Location

Airport or City:

Trip Planner

Search our weather history database for the weather conditions in past years. The results will help you decide how hot, cold, wet, or windy it might be!

Date:

Astronomy

Aug. 13, 2014 Rise Set
Actual Time 6:17 AM MDT 7:54 PM MDT
Civil Twilight 5:49 AM MDT 8:21 PM MDT
Nautical Twilight 5:16 AM MDT 8:54 PM MDT
Astronomical Twilight 4:41 AM MDT 9:29 PM MDT
Moon 9:49 PM MDT (8/13) 9:41 AM MDT (8/13)
Length of Visible Light 14h 31m
Length of Day
13h 36m
Waning Gibbous, 87% of the Moon is Illuminated
Aug 13
Waning Gibbous
Aug 17
Last Quarter
Aug 25
New
Sep 2
First Quarter
Sep 8
Full

Hourly Weather History & Observations

Time (MDT) Temp. Windchill Dew Point Humidity Pressure Visibility Wind Dir Wind Speed Gust Speed Precip Events Conditions
12:15 AM 46.4 °F - 44.6 °F 93% 30.51 in 10.0 mi Calm Calm - N/A   Clear
12:35 AM 44.6 °F - 42.8 °F 93% 30.51 in 10.0 mi Calm Calm - N/A   Clear
12:56 AM 44.6 °F - 42.8 °F 93% 30.51 in 10.0 mi Calm Calm - N/A   Clear
1:15 AM 44.6 °F - 42.8 °F 93% 30.51 in 10.0 mi Calm Calm - N/A   Clear
1:35 AM 44.6 °F 43.1 °F 44.6 °F 100% 30.50 in 10.0 mi ESE 3.5 mph - N/A   Clear
1:55 AM 42.8 °F - 41.0 °F 93% 30.50 in 10.0 mi Calm Calm - N/A   Clear
2:15 AM 44.6 °F - 42.8 °F 93% 30.50 in 10.0 mi Calm Calm - N/A   Clear
2:35 AM 44.6 °F - 42.8 °F 93% 30.50 in 10.0 mi Calm Calm - N/A   Clear
2:55 AM 42.8 °F - 41.0 °F 93% 30.50 in 10.0 mi Calm Calm - N/A   Clear
3:15 AM 42.8 °F 41.1 °F 42.8 °F 100% 30.50 in 10.0 mi SSE 3.5 mph - N/A   Clear
3:35 AM 42.8 °F - 41.0 °F 93% 30.50 in 10.0 mi Calm Calm - N/A   Clear
3:55 AM 42.8 °F - 41.0 °F 93% 30.50 in 10.0 mi Calm Calm - N/A   Clear
4:15 AM 42.8 °F - 41.0 °F 93% 30.50 in 10.0 mi Calm Calm - N/A   Clear
4:36 AM 41.0 °F - 39.2 °F 93% 30.51 in 10.0 mi Calm Calm - N/A   Clear
5:15 AM 41.0 °F - 39.2 °F 93% 30.50 in 10.0 mi Calm Calm - N/A   Mostly Cloudy
5:35 AM 41.0 °F - 39.2 °F 93% 30.50 in 10.0 mi Calm Calm - N/A   Scattered Clouds
5:55 AM 39.2 °F - 39.2 °F 100% 30.50 in 10.0 mi Calm Calm - N/A   Scattered Clouds
6:55 AM 42.8 °F - 41.0 °F 93% 30.52 in 0.2 mi Calm Calm - N/A Fog Fog
7:15 AM 42.8 °F - 42.8 °F 100% 30.52 in 0.2 mi Calm Calm - N/A Fog Fog
7:55 AM 44.6 °F - 44.6 °F 100% 30.53 in 0.2 mi Calm Calm - N/A Fog Fog
8:35 AM 46.4 °F - 46.4 °F 100% 30.51 in 0.2 mi Calm Calm - N/A Fog Fog
8:55 AM 51.8 °F - 50.0 °F 94% 30.51 in 5.0 mi Calm Calm - N/A   Overcast
9:15 AM 55.4 °F - 50.0 °F 82% 30.50 in 10.0 mi Calm Calm - N/A   Scattered Clouds
9:35 AM 57.2 °F - 51.8 °F 82% 30.50 in 10.0 mi Calm Calm - N/A   Clear
9:55 AM 59.0 °F - 51.8 °F 77% 30.50 in - Calm Calm - N/A   Clear
10:15 AM 62.6 °F - 51.8 °F 68% 30.49 in - Calm Calm - 0.03 in   Clear
10:35 AM 64.4 °F - 50.0 °F 59% 30.48 in 10.0 mi East 3.5 mph - 0.03 in   Clear
10:55 AM 64.4 °F - 48.2 °F 56% 30.48 in 10.0 mi Calm Calm - 0.03 in   Clear
11:15 AM 66.2 °F - 50.0 °F 56% 30.48 in 10.0 mi WSW 11.5 mph - N/A   Scattered Clouds
11:35 AM 66.2 °F - 48.2 °F 52% 30.48 in 10.0 mi WSW 9.2 mph - N/A   Clear
11:55 AM 66.2 °F - 50.0 °F 56% 30.47 in 10.0 mi West 12.7 mph - N/A   Clear
12:15 PM 64.4 °F - 50.0 °F 59% 30.47 in 10.0 mi West 10.4 mph - N/A   Clear
12:35 PM 68.0 °F - 48.2 °F 49% 30.46 in 10.0 mi West 4.6 mph - N/A   Clear
12:55 PM 69.8 °F - 42.8 °F 38% 30.45 in 10.0 mi Calm Calm - N/A   Clear
1:16 PM 71.6 °F - 39.2 °F 31% 30.44 in 10.0 mi East 3.5 mph - N/A   Clear
1:35 PM 73.4 °F - 44.6 °F 36% 30.44 in 10.0 mi SSE 5.8 mph - N/A   Clear
1:55 PM 71.6 °F - 44.6 °F 38% 30.43 in 10.0 mi WSW 6.9 mph - N/A   Scattered Clouds
2:15 PM 73.4 °F - 42.8 °F 33% 30.42 in 10.0 mi Calm Calm - N/A   Clear
2:35 PM 73.4 °F - 44.6 °F 36% 30.41 in 10.0 mi SSW 5.8 mph - N/A   Clear
2:56 PM 73.4 °F - 44.6 °F 36% 30.41 in 10.0 mi South 4.6 mph - N/A   Clear
3:17 PM 71.6 °F - 46.4 °F 41% 30.41 in 10.0 mi South 8.1 mph - N/A   Scattered Clouds
3:35 PM 73.4 °F - 46.4 °F 38% 30.39 in 10.0 mi SSE 6.9 mph - N/A   Scattered Clouds
4:15 PM 66.2 °F - 46.4 °F 49% 30.40 in 10.0 mi WSW 13.8 mph 20.7 mph N/A   Mostly Cloudy
4:35 PM 62.6 °F - 48.2 °F 59% 30.41 in 10.0 mi SSW 5.8 mph 16.1 mph N/A Rain Light Rain
4:55 PM 64.4 °F - 48.2 °F 56% 30.42 in 10.0 mi SSE 6.9 mph - N/A Rain Light Rain
5:16 PM 62.6 °F - 50.0 °F 63% 30.44 in 10.0 mi SE 8.1 mph - N/A   Overcast
5:35 PM 60.8 °F - 51.8 °F 72% 30.44 in 10.0 mi SE 9.2 mph - N/A Rain Light Rain
10:15 PM 51.8 °F - 48.2 °F 88% 30.45 in 10.0 mi Calm Calm - N/A   Clear
10:57 PM 51.8 °F - 48.2 °F 88% 30.45 in 10.0 mi Calm Calm - N/A   Clear
11:16 PM 51.8 °F - 48.2 °F 88% 30.45 in 10.0 mi Calm Calm - N/A   Scattered Clouds
11:35 PM 51.8 °F - 48.2 °F 88% 30.45 in 10.0 mi Calm Calm - N/A   Scattered Clouds
11:55 PM 50.0 °F - 48.2 °F 94% 30.44 in 10.0 mi Calm Calm - N/A   Scattered Clouds